Location: Matera
(40.6670°N, 16.6000°E)
Time: 03:00:22
(UTC+01:00)

ISS - Pass Details

Date: 24 January 2019
Orbit: 403 x 411 km, 51.6° (Epoch: 17 February)

Event Time Altitude Azimuth Distance (km) Brightness Sun altitude
Rises 19:18:10 0° 265° (W) 2,329 1.4 -25.9°
Reaches altitude 10° 19:20:30 10° 280° (W) 1,472 0.0 -26.3°
Enters shadow 19:22:03 19° 304° (WNW) 1,036 -1.2 -26.6°
